TimeCST,TemperatureF,Dew PointF,Humidity,Sea Level PressureIn,VisibilityMPH,Wind Direction,Wind SpeedMPH,Gust SpeedMPH,PrecipitationIn,Events,Conditions,WindDirDegrees,DateUTC
12:15 AM,23.0,23.0,100,29.61,7.0,WSW,10.4,-,N/A,,Overcast,250,2012-12-19 06:15:00
12:35 AM,23.0,23.0,100,29.62,4.0,West,9.2,-,N/A,,Overcast,260,2012-12-19 06:35:00
12:55 AM,23.0,23.0,100,29.63,8.0,WSW,12.7,-,N/A,,Overcast,250,2012-12-19 06:55:00
1:15 AM,23.0,23.0,100,29.63,5.0,West,13.8,-,N/A,,Overcast,260,2012-12-19 07:15:00
1:35 AM,23.0,23.0,100,29.63,3.0,West,13.8,-,N/A,Rain,Freezing Rain,260,2012-12-19 07:35:00
1:55 AM,23.0,21.2,93,29.63,3.0,West,11.5,-,N/A,Rain,Freezing Rain,270,2012-12-19 07:55:00
2:15 AM,21.2,21.2,100,29.64,5.0,West,12.7,-,N/A,Snow,Light Snow,260,2012-12-19 08:15:00
2:35 AM,21.2,19.4,93,29.65,4.0,West,15.0,-,N/A,Snow,Light Snow,260,2012-12-19 08:35:00
2:55 AM,19.4,19.4,100,29.65,4.0,WSW,9.2,-,N/A,Snow,Light Snow,250,2012-12-19 08:55:00
3:15 AM,19.4,19.4,100,29.66,1.5,SW,10.4,-,0.04,Snow,Light Snow,230,2012-12-19 09:15:00
3:35 AM,19.4,19.4,100,29.66,1.2,WSW,10.4,-,0.14,Snow,Light Snow,250,2012-12-19 09:35:00
3:55 AM,19.4,19.4,100,29.66,2.0,WSW,9.2,-,0.24,Snow,Light Snow,240,2012-12-19 09:55:00
4:15 AM,19.4,19.4,100,29.66,4.0,WSW,9.2,-,0.01,Snow,Light Snow,240,2012-12-19 10:15:00
4:35 AM,19.4,19.4,100,29.66,5.0,WSW,5.8,-,0.03,Snow,Light Snow,250,2012-12-19 10:35:00
4:55 AM,19.4,19.4,100,29.67,7.0,West,6.9,-,0.03,Snow,Light Snow,260,2012-12-19 10:55:00
5:15 AM,19.4,19.4,100,29.67,5.0,West,6.9,-,N/A,Snow,Light Snow,260,2012-12-19 11:15:00
5:35 AM,19.4,19.4,100,29.66,3.0,West,4.6,-,0.02,Snow,Light Snow,260,2012-12-19 11:35:00
5:55 AM,19.4,19.4,100,29.67,3.0,WSW,4.6,-,0.06,Snow,Light Snow,240,2012-12-19 11:55:00
6:15 AM,19.4,19.4,100,29.68,4.0,Calm,Calm,-,0.01,Snow,Light Snow,0,2012-12-19 12:15:00
6:35 AM,19.4,19.4,100,29.70,7.0,Calm,Calm,-,0.01,,Overcast,0,2012-12-19 12:35:00
6:55 AM,19.4,19.4,100,29.71,8.0,Calm,Calm,-,0.01,,Overcast,0,2012-12-19 12:55:00
7:15 AM,19.4,17.6,93,29.71,7.0,NNE,5.8,-,N/A,,Overcast,20,2012-12-19 13:15:00
7:35 AM,19.4,17.6,93,29.73,7.0,NE,9.2,-,N/A,Snow,Light Snow,50,2012-12-19 13:35:00
7:55 AM,17.6,17.6,100,29.74,10.0,NE,11.5,-,N/A,,Overcast,50,2012-12-19 13:55:00
8:15 AM,17.6,15.8,93,29.75,10.0,NNE,8.1,-,N/A,Snow,Light Snow,30,2012-12-19 14:15:00
8:35 AM,17.6,15.8,93,29.75,7.0,NNE,11.5,-,N/A,Snow,Light Snow,30,2012-12-19 14:35:00
8:55 AM,17.6,15.8,93,29.77,7.0,North,8.1,-,N/A,,Overcast,360,2012-12-19 14:55:00
9:15 AM,17.6,15.8,93,29.78,3.0,North,5.8,-,0.01,Snow,Light Snow,350,2012-12-19 15:15:00
9:35 AM,17.6,15.8,93,29.79,8.0,North,6.9,-,0.02,,Overcast,350,2012-12-19 15:35:00
9:55 AM,17.6,15.8,93,29.81,1.8,NW,6.9,-,0.09,Snow,Light Snow,320,2012-12-19 15:55:00
10:15 AM,17.6,15.8,93,29.82,4.0,NW,9.2,-,N/A,Snow,Light Snow,310,2012-12-19 16:15:00
10:35 AM,15.8,15.8,100,29.83,8.0,NW,8.1,-,N/A,Snow,Light Snow,310,2012-12-19 16:35:00
10:55 AM,15.8,15.8,100,29.84,9.0,NW,9.2,-,0.01,,Overcast,310,2012-12-19 16:55:00
11:15 AM,15.8,14.0,93,29.85,8.0,WNW,8.1,-,N/A,Snow,Light Snow,300,2012-12-19 17:15:00
11:35 AM,15.8,14.0,93,29.86,5.0,WNW,8.1,-,N/A,Snow,Light Snow,290,2012-12-19 17:35:00
11:55 AM,15.8,14.0,93,29.87,5.0,WNW,8.1,-,0.01,Snow,Light Snow,290,2012-12-19 17:55:00
12:15 PM,15.8,15.8,100,29.87,3.0,NW,10.4,-,0.01,Snow,Light Snow,310,2012-12-19 18:15:00
12:35 PM,17.6,15.8,93,29.88,3.0,NW,10.4,-,0.06,Snow,Light Snow,310,2012-12-19 18:35:00
12:55 PM,15.8,14.0,93,29.88,3.0,NW,16.1,-,0.10,Snow,Light Snow,310,2012-12-19 18:55:00
1:15 PM,15.8,14.0,93,29.88,3.0,NW,13.8,-,0.02,Snow,Light Snow,310,2012-12-19 19:15:00
1:35 PM,15.8,14.0,93,29.89,4.0,NW,12.7,-,0.05,Snow,Light Snow,310,2012-12-19 19:35:00
1:55 PM,15.8,14.0,93,29.90,4.0,NW,16.1,20.7,0.07,Snow,Light Snow,310,2012-12-19 19:55:00
2:15 PM,15.8,14.0,93,29.91,3.0,WNW,15.0,-,0.03,Snow,Light Snow,300,2012-12-19 20:15:00
2:35 PM,15.8,14.0,93,29.91,5.0,NW,13.8,-,0.04,Snow,Light Snow,310,2012-12-19 20:35:00
2:55 PM,15.8,14.0,93,29.92,9.0,NW,17.3,23.0,0.04,,Overcast,310,2012-12-19 20:55:00
3:15 PM,15.8,14.0,93,29.94,10.0,NW,13.8,-,N/A,,Overcast,310,2012-12-19 21:15:00
3:35 PM,15.8,14.0,93,29.94,9.0,NW,16.1,-,N/A,,Overcast,310,2012-12-19 21:35:00
3:55 PM,14.0,12.2,93,29.95,10.0,NW,16.1,-,N/A,Snow,Light Snow,310,2012-12-19 21:55:00
4:15 PM,12.2,10.4,92,29.97,10.0,WNW,18.4,21.9,N/A,Snow,Light Snow,300,2012-12-19 22:15:00
4:35 PM,10.4,8.6,92,29.98,10.0,NW,15.0,25.3,N/A,,Overcast,310,2012-12-19 22:35:00
4:55 PM,10.4,8.6,92,29.99,10.0,WNW,16.1,-,N/A,,Overcast,290,2012-12-19 22:55:00
5:15 PM,10.4,8.6,92,30.00,10.0,WNW,13.8,-,N/A,,Overcast,300,2012-12-19 23:15:00
5:35 PM,10.4,8.6,92,30.01,10.0,WNW,15.0,-,N/A,,Overcast,300,2012-12-19 23:35:00
5:55 PM,8.6,6.8,92,30.01,10.0,WNW,12.7,-,N/A,,Overcast,290,2012-12-19 23:55:00
6:15 PM,5.0,1.4,85,30.02,10.0,West,11.5,-,N/A,,Scattered Clouds,280,2012-12-20 00:15:00
6:35 PM,1.4,-0.4,92,30.03,10.0,WNW,12.7,-,N/A,,Clear,290,2012-12-20 00:35:00
6:55 PM,1.4,-0.4,92,30.03,10.0,WNW,10.4,-,N/A,,Scattered Clouds,290,2012-12-20 00:55:00
7:15 PM,3.2,-0.4,85,30.03,10.0,WNW,6.9,-,N/A,,Overcast,290,2012-12-20 01:15:00
7:35 PM,3.2,-0.4,85,30.04,10.0,WNW,6.9,-,N/A,,Overcast,300,2012-12-20 01:35:00
7:55 PM,6.8,3.2,85,30.05,10.0,West,4.6,-,N/A,,Overcast,260,2012-12-20 01:55:00
8:15 PM,6.8,5.0,92,30.05,10.0,West,6.9,-,N/A,,Overcast,270,2012-12-20 02:15:00
8:35 PM,6.8,5.0,92,30.05,10.0,WSW,5.8,-,N/A,Snow,Light Snow,250,2012-12-20 02:35:00
8:55 PM,6.8,5.0,92,30.05,10.0,WNW,8.1,-,N/A,,Overcast,290,2012-12-20 02:55:00
9:15 PM,6.8,5.0,92,30.06,10.0,West,10.4,-,N/A,,Mostly Cloudy,280,2012-12-20 03:15:00
9:35 PM,5.0,1.4,85,30.07,10.0,West,6.9,-,N/A,,Partly Cloudy,270,2012-12-20 03:35:00
9:55 PM,3.2,-0.4,85,30.07,10.0,West,8.1,-,N/A,,Clear,280,2012-12-20 03:55:00
10:15 PM,1.4,-0.4,92,30.07,10.0,West,9.2,-,N/A,,Scattered Clouds,270,2012-12-20 04:15:00
10:35 PM,-0.4,-2.2,92,30.07,10.0,West,6.9,-,N/A,,Mostly Cloudy,260,2012-12-20 04:35:00
10:55 PM,-0.4,-4.0,85,30.08,10.0,West,8.1,-,N/A,,Mostly Cloudy,260,2012-12-20 04:55:00
11:15 PM,-0.4,-4.0,85,30.08,10.0,West,8.1,-,N/A,,Partly Cloudy,270,2012-12-20 05:15:00
11:35 PM,-2.2,-7.6,78,30.08,10.0,WNW,11.5,-,N/A,,Clear,290,2012-12-20 05:35:00